Regional Weather Roundup
Issued by NWS

Home | Current Version | Previous Version | Text Only | Print | Product List | Glossary Off
Versions: 1 2 3 4 5 6 7 8 9 10 11 12 13 14 15 16 17 18 19 20 21 22 23 24 25 26 27 28 29 30 31 32 33 34 35 36 37 38 39 40 41 42 43 44 45 46 47 48 49 50

000
ASUS43 KLOT 020106
RWRIL

ILLINOIS REGIONAL WEATHER ROUNDUP
NATIONAL WEATHER SERVICE CHICAGO/ROMEOVILLE IL
800 PM CDT MON SEP 01 2014

NOTE: "FAIR" INDICATES FEW OR NO CLOUDS BELOW 12,000 FEET WITH NO
SIGNIFICANT WEATHER AND/OR OBSTRUCTIONS TO VISIBILITY.

* THESE STATIONS ARE NOT UNDER NWS QUALITY CONTROL. THEY ALSO MAY NOT
  REPORT WEATHER SUCH AS PRECIPITATION OR FOG.

ILZ001-002-007-009-015-016-024-020200-
NORTHWEST ILLINOIS

CITY           SKY/WX    TMP DP  RH WIND       PRES   REMARKS
MOLINE         CLEAR     73  66  78 W8        29.82R
STERLING*      MOCLDY    75  66  73 W5        29.81R
SAVANNA*       PTCLDY    73  65  75 W5        29.81R
$$

ILZ003-004-008-010-011-017-018-020200-
NORTH CENTRAL ILLINOIS

CITY           SKY/WX    TMP DP  RH WIND       PRES   REMARKS
ROCKFORD       MOCLDY    70  65  84 SW6       29.82R
FREEPORT*      PTCLDY    66  64  94 SW3       29.83R
ROCHELLE*      PTCLDY    73  67  82 SW7       29.81S
DE KALB*       PTCLDY    73  65  78 SW10      29.82R
PERU*          CLEAR     74  67  77 SW8       29.83R
$$

ILZ005-006-012>014-019>023-020200-
NORTHEAST ILLINOIS

CITY           SKY/WX    TMP DP  RH WIND       PRES   REMARKS
CHICAGO-OHARE  PTCLDY    77  63  61 SW13      29.79R
CHICAGO-MIDWAY PTCLDY    79  67  66 SW13      29.80R HX  81
AURORA         PTCLDY    75  65  70 SW8       29.81R
LANSING*         N/A    N/A N/A N/A MISG        N/A
JOLIET*        CLEAR     75  64  67 SW6       29.83R
WAUKEGAN       PTCLDY    75  65  70 SW9       29.78R
DUPAGE AIRPORT CLEAR     75  65  70 SW9       29.81R
KANKAKEE*      CLEAR     71  67  88 SW8       29.84S
WHEELING       CLEAR     79  64  60 SW8       29.80R HX  81
MORRIS*        CLEAR     74  67  79 SW5       29.82R
ROMEOVILLE*    CLEAR     75  64  70 SW9       29.82R
NORTHERLY ISL    N/A     79  63  57 SW6         N/A  HX  80
$$

LMZ740>746-020200-
SOUTHERN LAKE MICHIGAN

STATION/POSITION SKY/WX   TEMP    WIND        PRES    VSBY  WAVE
                          AIR SEA DIR/SP/G                  HT/PER
                          (F)     (DEG/KT/KT) (MB)    (MI)  (FT/S)
SOUTHERN BUOY              72 70  210/  8/ 10 1007.6R         1/ 4
WAUKEGAN HARBOR            77     230/ 12/ 15   N/A
HARRISON CRIB              78     240/ 13/ 19   N/A
BURNHAM HARBOR             79     240/  9/ 17   N/A
CALUMET HARBOR             78     210/  6/ 10 1008.1S
MICHIGAN CITY              77     200/ 15/ 18   N/A
MICHIGAN CITY 6N           76 72  230/ 14/ 17   N/A           2/ 3
ST. JOSEPH                 74 72  220/ 12/ 16   N/A           3/ 3
$$

ILZ025>027-034>036-040-047-049-050-058-095>099-020200-
WEST-CENTRAL ILLINOIS

CITY           SKY/WX    TMP DP  RH WIND       PRES   REMARKS
QUINCY         CLOUDY    76  68  76 CALM      29.85F
GALESBURG*     PTCLDY    72  68  87 SW6       29.85R
MACOMB*        PTCLDY    73  67  83 SW3       29.87R
JACKSONVILLE*  PTCLDY    77  69  76 S6        29.87F
PITTSFIELD*    CLOUDY    76  68  75 CALM      29.86F
$$

ILZ028>032-037-038-041>044-048-051>054-059>061-020200-
CENTRAL ILLINOIS

CITY           SKY/WX    TMP DP  RH WIND       PRES   REMARKS
PONTIAC        CLEAR     75  68  78 SW6       29.84S
DECATUR        CLEAR     76  66  71 SW8       29.88R
PEORIA         CLEAR     76  66  71 SW7       29.85R
LACON*         CLEAR     74  66  75 SW5       29.83R
LINCOLN*       CLEAR     77  66  69 CALM      29.84R
SPRINGFIELD    CLEAR     77  67  71 SW5       29.86F
TAYLORVILLE    MOCLDY    73  68  83 S5        29.87F
$$

ILZ033-039-045-046-055>057-062-063-020200-
EAST-CENTRAL ILLINOIS

CITY           SKY/WX    TMP DP  RH WIND       PRES   REMARKS
CHAMPAIGN      CLEAR     72  66  81 SW7       29.89R
DANVILLE*      CLEAR     70  66  86 SW8       29.85S
RANTOUL*       CLEAR     73  65  78 SW5       29.88R
MATTOON        CLEAR     75  67  76 S7        29.90R
PARIS*         CLEAR     72  67  85 S5        29.90S
$$

ILZ079-100>102-020200-
SOUTHWEST ILLINOIS

CITY           SKY/WX    TMP DP  RH WIND       PRES   REMARKS
ALTON          TSTM      73  68  83 NW6       29.90S
BELLEVILLE     CLOUDY    77  72  83 E2        29.89S
CAHOKIA*       CLOUDY    79  69  71 SE5       29.87F HX  81
SPARTA*        CLOUDY    77  70  79 CALM      29.91F
$$

ILZ064>066-069>071-074>076-080>082-084>086-088>090-092>094-020200-
SOUTH-CENTRAL ILLINOIS

CITY           SKY/WX    TMP DP  RH WIND       PRES   REMARKS
CARBONDALE     CLOUDY    77  74  90 E5        29.92S
CAIRO*         CLEAR     82  71  68 S5        29.93S HX  86
EFFINGHAM*     MOCLDY    75  64  68 S3        29.91R
MARION         CLOUDY    79  73  83 SE3       29.93S HX  82
MT. VERNON     CLOUDY    75  66  73 CALM      29.93S
CENTRALIA*     MOCLDY    75  68  78 S5        29.92S
SALEM*         MOCLDY    77  71  81 CALM      29.91F
METROPOLIS*    CLEAR     80  73  77 S3        29.93F HX  84
$$

ILZ067-068-072-073-078-083-087-091-020200-
SOUTHEAST ILLINOIS

CITY           SKY/WX    TMP DP  RH WIND       PRES   REMARKS
LAWRENCEVILLE  CLEAR     76  72  87 SW6       29.92R
FLORA*         CLEAR     73  68  85 SW6       29.93R
FAIRFIELD*     PTCLDY    79  72  78 SW3       29.93R HX  82
HARRISBURG*    PTCLDY    76  74  92 CALM      29.95S
ROBINSON*      PTCLDY    74  71  90 SW3       29.92R
CARMI*         CLEAR     76  73  91 S5        29.94S
$$

ABBREVIATIONS USED IN REMARKS
   TC - TEMPERATURE IN CELSIUS
  WCI - WIND CHILL INDEX
   HX - HEAT INDEX
  VSB - VISIBILITY
$$




USA.gov is the U.S. government's official web portal to all federal, state and local government web resources and services.